Flag for U.S.A. Weather past 2 weeks in Thousand Oaks, California, U.S.A.

Now
77 °F

Sunny.


Feels Like: 78 °F
Forecast: 53 / 84 °F
Wind: 10 mph from West

Location: Camarillo Airport

Current Time: Apr 28, 2015 at 1:12:10 PM

Latest Report: Apr 28, 2015 at 12:55 PM


Visibility: 10 mi

Pressure: 29.98 "Hg

Humidity: 35%

Dew point: 47 °F

Location of Thousand OaksLocation

Historic Weather in Thousand Oaks — Graph

°F

Thousand Oaks temperature yesterday

Maximum temperature yesterday: 90 °F (at 12:55 PM)
Minimum temperature yesterday: 51 °F (at 4:55 AM)
Average temperature yesterday: 69 °F

Past Weeks' High & Low Weather Summary

 TemperatureHumidityPressure
High90 °F (Apr 27, 12:55 PM)93% (Apr 19, 6:55 AM)30.14 "Hg (Apr 19, 6:55 AM)
Low48 °F (Apr 15, 4:55 AM)6% (Apr 16, 11:55 AM)29.85 "Hg (Apr 25, 6:55 PM)
Average62 °F59%29.97 "Hg
* Reported Apr 13 11:55 AM — Apr 28 11:55 AM, Thousand Oaks, Weather by CustomWeather, © 2015

Note: Actual official high and low records may vary slightly from our data, if they occured in-between our weather recording intervals... More about our weather records

Advertising

Thousand Oaks weather history for previous 24 hours

 ConditionsComfort  
Time TempWeatherWind HumidityBarometerVisibility
11:55 AM
Tue, Apr 28
77 °FSunny.10 mph32%29.98 "Hg10 mi
10:55 AM79 °FSunny.10 mph38%29.97 "Hg10 mi
9:55 AM75 °FSunny.No wind31%29.97 "Hg10 mi
8:55 AM68 °FSunny.No wind45%29.97 "Hg10 mi
7:55 AM61 °FSunny.No wind56%29.97 "Hg10 mi
6:55 AM54 °FClear.No wind62%29.97 "Hg10 mi
5:55 AM52 °FClear.3 mph64%29.96 "Hg10 mi
4:55 AM53 °FClear.3 mph64%29.96 "Hg10 mi
3:55 AM52 °FClear.No wind69%29.97 "Hg10 mi
2:55 AM53 °FClear.No wind69%29.97 "Hg10 mi
1:55 AM54 °FClear.5 mph72%29.96 "Hg10 mi
12:55 AM56 °FClear.No wind67%29.97 "Hg10 mi
11:55 PM
Mon, Apr 27
58 °FClear.No wind65%29.98 "Hg10 mi
10:55 PM61 °FClear.6 mph60%29.97 "Hg10 mi
9:55 PM62 °FClear.No wind60%29.98 "Hg10 mi
8:55 PM63 °FClear.5 mph63%29.97 "Hg10 mi
7:55 PM63 °FSunny.5 mph65%29.94 "Hg10 mi
6:55 PM67 °FSunny.9 mph57%29.92 "Hg10 mi
5:55 PM77 °FSunny.16 mph29%29.91 "Hg10 mi
4:55 PM78 °FSunny.9 mph25%29.91 "Hg10 mi
3:55 PM79 °FSunny.9 mph29%29.92 "Hg10 mi
2:55 PM81 °FSunny.14 mph27%29.93 "Hg10 mi
1:55 PM82 °FSunny.14 mph26%29.94 "Hg10 mi
Weather by CustomWeather, © 2015

See weather overviewHow to use our weather pages